{"data":{"norad_id":47630,"intl_designator":"2021-012L","name":"STARLINK-1983","alt_names":[],"object_type":"PAYLOAD","status":"ACTIVE","operator":null,"country":"US","launch_date":"2021-02-16","launch_site_code":"AFETR","launch_vehicle":null,"mission":null,"orbit_class":"UNKNOWN","rcs_meters":null,"size_class":null,"mass_kg":null,"dimensions":null,"purposes":["comms"],"wikipedia_slug":null,"has_3d_model":false,"image_url":null,"decayed_at":null,"tle_current":{"epoch":"2026-09-19T12:31:13.402560Z","epoch_age_seconds":110371,"freshness":"FRESH","line1":"1 47630U 21012L   26262.52168290  .00034871  00000+0  10422-2 0  9990","line2":"2 47630  53.1567 227.1350 0004149  76.7854 283.3612 15.34278963309986","mean_motion":15.34278963,"eccentricity":0.0004149,"inclination_deg":53.1567,"raan_deg":227.135,"arg_perigee_deg":76.7854,"mean_anomaly_deg":283.3612,"bstar":0.0010422,"rev_number":30998,"period_min":93.855161592279,"perigee_km":460.22459744354,"apogee_km":465.90142521294,"semimajor_km":6841.2000113282,"source":"CELESTRAK","updated_at":"2026-09-20T09:00:38.597769Z"}}}